RH
75 74 75 75 74 73 72 69 67 64 64 65 66 67 69 70 72 73 75 76 77 79 80 79 77 73 70 67 66 65 64 64 64 66 67 67 68 68 69 70 70 70
76 76 77 79 80 80 78 75 73 71 71 71 70 69 69 70 70 72 75 77 77 76 76 76 75 73 71 68 66 64 62 62 62 63 64 64 64 64 65 65 65 64
75 75 76 78 81 82 80 78 76 76 76 75 74 74 72 71 70 71 73 76 77 76 76 76 76 75 74 72 70 69 68 69 68 68 68 67 66 66 65 64 63 62
75 75 75 78 82 84 83 81 80 81 81 81 81 80 76 74 72 71 72 73 76 79 81 82 83 82 82 81 80 80 80 80 78 76 75 74 73 71 69 66 63 60
80 78 78 80 84 88 89 87 88 89 88 88 88 85 81 78 76 72 70 71 75 79 83 86 89 90 90 91 91 90 90 89 87 84 82 80 78 74 70 66 61 56
87 85 84 85 88 92 93 94 95 94 93 91 87 83 81 78 75 73 72 74 76 79 82 87 92 95 96 97 97 96 94 92 90 87 85 82 77 73 70 64 57 49
94 93 91 92 93 96 98 101 102 101 97 91 84 80 78 77 76 78 78 79 81 83 87 94 98 99 100 99 99 97 95 93 91 87 83 78 74 70 65 57 47 38
97 96 96 97 98 99 102 104 105 105 101 96 90 85 84 85 87 90 89 89 92 95 98 101 102 101 100 98 97 96 95 93 89 84 80 75 70 62 52 42 34 29
98 97 99 102 104 106 108 107 105 103 102 102 100 96 99 101 101 102 103 102 103 104 104 103 102 101 99 98 98 96 93 88 83 79 75 68 58 47 37 31 28 27
100 101 103 105 107 110 111 110 108 105 103 105 103 101 107 109 107 110 112 108 106 105 104 103 102 102 100 96 93 89 85 81 76 70 61 50 40 33 29 28 27 28
104 105 106 108 109 109 110 111 110 106 103 104 104 104 106 108 111 116 116 111 108 105 103 104 102 99 95 90 85 82 77 71 62 51 41 33 30 28 27 27 28 28
109 108 107 107 107 107 108 110 111 109 104 104 106 106 106 105 109 115 116 113 110 108 105 103 98 93 89 85 80 72 62 51 42 35 31 28 27 27 27 27 27 27
107 109 109 107 105 107 108 109 110 111 109 108 106 104 105 107 108 112 116 114 110 106 102 98 95 90 83 74 63 52 42 36 32 30 28 27 27 26 26 26 26 27
104 105 106 106 106 108 110 110 109 108 108 108 107 105 107 111 111 110 110 107 104 101 97 92 86 77 64 52 42 37 34 32 30 29 27 27 26 26 26 26 26 26
105 102 102 104 106 108 110 110 110 108 107 107 108 107 108 108 106 104 104 102 98 92 83 72 61 50 42 37 34 33 31 30 28 27 26 26 26 26 26 25 25 23
104 103 102 102 105 107 109 110 110 109 107 106 106 105 106 105 102 99 94 87 76 65 54 46 40 36 35 33 32 31 29 28 27 26 26 26 25 25 23 22 21 20
103 104 104 103 104 104 104 105 105 104 104 104 103 101 97 91 83 75 65 55 47 41 37 35 34 33 32 31 30 29 27 26 26 25 24 23 22 21 20 19 18 17
103 104 104 102 101 100 100 101 100 99 96 91 85 78 69 59 51 45 40 37 35 34 33 33 32 31 30 29 28 26 25 24 24 22 21 19 18 18 17 17 16 16
103 103 102 101 99 97 95 90 83 76 69 60 52 47 41 38 36 34 33 33 32 31 30 30 29 29 28 26 25 24 22 20 19 18 17 16 16 16 15 15 15 15
103 100 97 92 86 77 69 61 53 46 42 38 36 34 33 33 32 31 30 29 29 29 28 28 27 26 25 23 22 20 18 16 16 15 15 15 15 15 15 15 15 15
81 74 68 60 53 47 42 39 36 34 33 32 32 31 30 29 28 28 28 27 27 27 26 25 24 23 22 20 18 16 15 13 13 14 14 14 14 15 15 15 16 15
47 44 40 38 36 35 34 33 32 31 30 29 28 28 27 27 26 26 26 25 25 24 23 22 20 19 17 16 15 14 13 12 12 13 14 14 15 15 15 15 15 15
34 33 32 31 31 30 29 28 28 27 26 25 25 25 25 25 24 23 23 22 21 19 18 17 16 15 15 14 13 13 12 12 12 13 14 15 16 16 15 15 14 13
29 28 27 27 26 25 25 24 23 23 23 23 23 22 22 21 20 19 18 17 16 15 15 14 14 14 13 13 13 13 12 12 13 13 14 15 15 15 14 14 13 13
24 23 22 22 21 21 21 21 20 21 20 20 19 19 18 17 16 15 15 14 14 13 13 13 13 13 13 13 13 13 13 13 12 13 13 13 13 13 13 13 13 12
19 19 18 18 18 18 18 18 18 18 17 16 15 14 14 14 13 13 13 13 13 13 13 13 13 13 13 13 13 13 13 12 12 12 12 12 11 11 12 12 12 12
Wind_Speed
80 82 83 84 84 85 86 86 86 85 84 84 84 84 84 84 85 86 86 86 87 87 87 88 89 90 91 92 92 93 94 94 95 96 98 100 101 103 105 107 109 111
81 82 83 84 85 86 87 87 87 87 87 88 88 87 86 86 85 85 85 85 86 86 87 88 90 91 93 94 95 96 97 98 99 100 102 104 105 107 109 111 113 115
81 82 83 83 84 85 85 86 86 86 88 88 89 89 88 88 86 86 85 86 86 87 88 90 92 94 96 97 99 100 101 102 103 105 107 108 110 112 113 115 117 119
81 82 83 83 83 83 84 84 84 85 87 88 89 90 90 89 88 87 86 86 87 88 90 92 94 96 98 100 101 103 104 106 108 110 112 113 115 116 118 119 120 121
82 83 83 83 83 83 83 83 84 86 88 89 90 92 92 91 90 89 88 88 89 90 92 94 96 99 101 103 104 105 107 109 112 114 116 118 119 121 122 123 124 124
83 84 84 84 84 85 85 85 86 88 90 91 92 93 93 93 92 91 91 91 92 93 95 97 99 101 104 106 107 109 110 113 115 118 120 121 123 125 125 126 126 125
84 85 85 85 85 86 87 88 90 91 92 93 94 94 95 95 95 95 95 95 96 97 98 100 102 104 107 108 110 112 114 116 119 121 123 124 126 126 126 126 126 125
85 86 86 86 86 87 88 90 92 94 95 96 96 96 97 97 97 98 98 99 100 101 102 104 106 107 109 111 113 115 117 120 122 124 125 126 126 126 125 125 124 122
87 87 88 88 88 88 89 91 93 95 97 98 98 98 99 99 100 101 101 102 103 105 106 107 109 110 112 114 116 118 121 123 125 126 126 126 126 125 124 122 121 120
89 89 89 89 89 90 91 92 94 96 98 99 100 101 101 102 103 104 105 106 107 108 109 111 112 114 116 118 120 122 124 126 126 126 126 125 124 122 121 120 118 117
92 92 92 91 92 92 93 94 95 96 98 100 101 102 103 104 106 107 108 109 110 112 113 114 116 118 120 122 123 125 126 126 126 125 124 122 121 119 118 117 116 114
94 94 94 94 94 94 95 95 96 97 98 99 100 102 104 106 107 109 111 113 114 115 117 118 120 122 124 125 125 126 125 125 124 123 121 120 118 116 115 114 112 111
97 97 98 98 97 97 97 96 96 97 98 99 101 103 105 107 109 112 114 116 117 119 121 122 124 125 125 125 125 124 124 123 122 120 119 117 115 113 112 111 110 109
99 99 100 100 100 99 98 98 98 98 99 100 102 104 107 109 112 114 116 118 120 122 124 125 125 125 124 124 123 122 121 120 119 118 116 114 112 110 109 108 108 107
100 100 101 101 101 101 100 100 100 101 102 103 105 108 110 113 115 117 119 121 123 124 124 124 123 122 122 121 121 120 119 117 116 114 112 111 109 108 107 107 106 106
101 101 101 101 102 102 102 103 104 105 106 108 110 112 114 116 118 120 121 122 122 122 122 121 120 120 119 118 118 117 116 114 112 110 109 108 107 106 106 105 105 104
103 103 103 104 104 105 106 107 109 110 111 113 114 116 117 118 119 119 120 120 119 119 118 118 117 116 116 115 115 114 112 110 109 107 106 105 105 104 103 103 103 102
106 106 107 108 109 110 111 112 113 114 115 115 116 116 117 117 117 117 117 116 116 116 115 114 114 113 113 112 111 110 108 107 105 105 104 103 102 101 101 101 100 100
111 111 112 112 113 114 114 114 114 115 115 115 115 115 114 114 114 114 114 113 113 113 112 111 111 110 110 109 108 107 105 103 102 102 101 100 99 99 98 98 97 97
114 114 114 114 115 115 114 114 114 113 113 112 112 112 112 111 111 111 111 110 110 109 109 108 108 107 107 106 105 104 102 100 98 98 98 97 96 96 96 95 95 95
114 114 114 113 113 113 112 112 111 111 110 110 110 110 109 109 109 108 108 107 107 107 106 105 105 104 104 103 102 100 99 97 94 94 94 94 93 93 93 93 93 93
112 111 111 110 110 110 109 109 109 108 108 108 107 107 107 106 106 105 105 105 104 104 103 102 101 100 100 99 98 97 96 94 91 90 90 91 91 91 91 91 91 91
109 109 108 108 108 107 107 107 106 106 106 105 105 104 104 103 103 102 102 101 101 100 99 98 97 97 96 95 95 94 93 91 88 87 87 88 88 89 89 89 89 89
107 106 106 106 105 105 104 104 103 103 103 102 102 101 101 100 99 99 98 97 96 96 95 94 93 93 93 92 91 91 90 89 87 85 85 85 85 86 86 87 87 87
104 104 104 103 102 102 101 101 100 100 99 99 98 97 97 96 95 94 93 92 92 91 91 90 90 90 89 89 88 88 88 87 85 83 83 83 83 83 83 84 85 86
102 101 100 100 99 98 98 97 97 96 96 95 94 93 92 91 90 89 88 88 88 88 88 87 87 87 87 87 86 86 85 84 83 82 81 81 81 81 82 82 84 85
Wind_Direction
287 286 285 285 284 283 282 281 281 281 281 281 280 280 280 280 280 280 281 281 281 280 281 281 281 281 281 281 280 280 279 279 279 279 278 278 278 278 278 278 278 277
287 286 285 284 283 283 282 281 281 281 281 280 280 280 280 280 280 281 281 280 280 280 280 280 281 281 281 281 281 281 281 281 280 280 280 279 279 279 278 278 277 277
288 287 286 285 284 283 282 282 281 281 280 280 280 280 280 280 280 280 280 280 280 280 280 281 281 282 282 282 283 283 283 283 283 282 281 281 280 280 279 278 278 277
290 289 288 287 285 284 283 283 282 282 281 281 281 281 281 281 281 280 280 279 280 280 281 281 282 282 283 283 283 284 284 284 284 284 283 283 282 281 281 280 280 279
291 291 290 288 287 285 284 283 283 283 283 283 282 282 282 282 281 281 280 280 280 280 281 282 282 282 283 283 283 284 284 284 285 284 284 284 284 283 283 282 282 281
292 292 291 290 288 286 284 283 283 283 283 283 283 283 283 283 283 282 282 281 281 282 282 282 282 283 283 283 283 284 284 284 284 284 284 284 284 284 284 284 283 283
292 292 291 291 289 287 285 284 283 283 283 284 284 284 284 284 284 284 284 284 284 283 283 283 283 283 283 283 283 284 284 284 284 284 284 284 284 284 284 284 284 284
291 291 291 290 290 288 286 284 283 283 283 284 285 285 285 286 286 286 286 285 285 285 284 284 283 283 283 283 284 284 284 284 284 284 284 285 285 285 285 284 284 284
290 290 290 290 290 289 288 286 284 283 283 284 284 285 286 286 286 286 286 286 286 285 285 284 284 284 284 284 284 284 284 284 284 285 285 285 285 285 285 285 285 285
290 290 290 290 290 289 289 287 286 284 283 283 283 284 285 285 286 286 286 286 286 286 285 285 285 284 284 284 284 284 284 285 285 285 285 285 285 285 285 285 285 285
291 290 290 290 289 289 288 287 286 285 284 283 283 283 284 284 285 285 286 286 286 286 286 286 285 285 285 285 285 285 285 285 285 285 285 285 285 285 285 285 285 284
291 291 290 290 289 289 288 287 287 286 285 284 283 283 283 284 284 285 286 286 286 286 286 286 286 286 286 286 286 286 286 286 286 286 286 285 285 285 285 285 285 284
291 291 291 290 289 289 288 287 287 286 285 284 284 284 284 284 284 285 285 286 286 286 286 286 286 286 286 286 286 286 286 286 286 286 286 286 286 286 286 285 285 285
291 291 290 290 290 289 289 288 287 286 285 285 284 284 284 284 285 285 285 285 286 286 286 286 286 286 287 287 287 286 286 286 286 286 286 287 287 286 286 286 285 285
289 289 289 289 289 289 288 288 287 286 286 285 285 285 285 285 285 285 285 285 285 285 286 286 286 286 286 286 286 286 286 286 286 287 287 287 287 287 286 286 285 285
289 289 288 288 288 288 288 287 287 286 286 286 285 285 285 285 285 285 285 285 285 285 286 286 286 286 286 286 286 286 286 286 287 287 287 287 287 286 286 286 285 285
289 289 288 288 288 287 287 287 286 286 286 286 285 285 285 285 285 285 285 285 285 285 286 286 286 286 286 286 286 286 287 287 287 287 287 286 286 286 286 286 285 285
289 289 288 288 288 287 287 287 286 286 286 286 286 285 285 285 285 285 285 285 285 286 286 286 286 286 287 287 287 287 287 287 287 287 286 286 286 286 286 285 285 284
289 289 288 288 288 287 287 287 286 286 286 286 286 285 285 285 285 285 285 286 286 286 286 287 287 287 287 287 287 287 286 286 286 286 286 286 286 286 285 285 284 284
288 288 288 288 288 287 287 287 286 286 286 286 286 286 286 286 286 286 286 286 286 287 287 287 287 287 287 287 287 286 286 286 286 286 286 286 286 285 285 285 285 285
288 288 288 287 287 287 287 287 287 287 286 286 286 286 286 286 287 287 287 287 287 287 287 287 287 287 287 287 287 286 286 286 286 286 286 286 286 286 286 286 285 285
287 287 287 287 287 287 287 287 287 287 287 287 287 287 287 287 288 288 288 288 288 288 288 287 287 287 287 287 287 287 286 286 287 287 287 287 287 287 286 286 285 285
287 287 287 287 287 287 287 287 287 287 288 288 288 288 288 288 288 288 288 288 288 288 288 288 287 287 287 287 287 287 287 287 287 287 287 287 287 286 286 286 285 285
287 287 287 287 287 288 288 288 288 288 289 289 289 289 289 289 288 288 288 288 288 288 288 288 287 287 287 287 287 287 288 288 288 287 287 286 286 285 285 286 285 285
288 288 288 288 289 289 289 289 289 289 289 289 289 289 289 289 289 289 288 288 288 288 288 288 287 287 287 287 288 288 287 287 287 287 286 286 285 285 285 285 285 285
289 289 290 290 290 290 290 290 290 290 289 289 289 289 289 289 289 289 289 289 288 288 288 288 288 288 288 287 287 287 287 287 287 287 286 286 286 285 285 284 284 284